Weather History for Wauseon Fulton County Airport, OH

Change the Weather History Date:

Friday, January 31, 2014

  Actual Average (KTOL) Record (KTOL)
Temperature  
Mean Temperature 29 °F 26 °F  
Max Temperature 32 °F 33 °F 62 °F (1989)
Min Temperature 26 °F 18 °F -5 °F (1971)
Degree Days  
Heating Degree Days 36 39  
Month to date heating degree days 1227  
Since 1 July heating degree days 3549  
Cooling Degree Days 0 0  
Month to date cooling degree days 0  
Year to date cooling degree days 0  
Moisture  
Dew Point 25 °F    
Average Humidity 82    
Maximum Humidity 100    
Minimum Humidity 64    
Precipitation  
Precipitation 0.00 in 0.06 in 0.93 in (2002)
Month to date precipitation 2.05  
Year to date precipitation 2.05  
Snow  
Snow 0.00 in 0.40 in - ()
Month to date snowfall 11.6  
Since 1 July snowfall 21.1  
Snow Depth -    
Sea Level Pressure  
Sea Level Pressure 30.04 in    
Wind  
Wind Speed 9 mph (WSW)    
Max Wind Speed 14 mph    
Max Gust Speed 21 mph    
Visibility 6 miles    
Events Snow    
T = Trace of Precipitation, MM = Missing Value Source: NWS Daily Summary

Daily Weather History Graph

Daily Weather History Graph

Search for Another Location

Airport:

Trip Planner

Search our weather history database for the weather conditions in past years. The results will help you decide how hot, cold, wet, or windy it might be!

Date:

Astronomy

Jan. 31, 2014 Rise Set
Actual Time 7:49 AM EST 5:51 PM EST
Civil Twilight 7:19 AM EST 6:20 PM EST
Nautical Twilight 6:46 AM EST 6:53 PM EST
Astronomical Twilight 6:14 AM EST 7:26 PM EST
Moon 7:57 AM EST (1/31) 7:15 PM EST (1/31)
Length of Visible Light 11h 00m
Length of Day
10h 01m
New Moon, 1% of the Moon is Illuminated
Jan 31
New Moon
Feb 6
First Quarter
Feb 14
Full
Feb 22
Last Quarter
Mar 1
New

Hourly Weather History & Observations

Time (EST) Temp. Windchill Dew Point Humidity Pressure Visibility Wind Dir Wind Speed Gust Speed Precip Events Conditions
12:15 AM 28.4 °F 18.0 °F 23.0 °F 80% 29.86 in 10.0 mi SW 12.7 mph 20.7 mph N/A   Overcast
12:35 AM 26.6 °F 15.2 °F 21.2 °F 80% 29.86 in 10.0 mi SW 13.8 mph 19.6 mph N/A   Overcast
12:55 AM 28.4 °F 18.0 °F 21.2 °F 74% 29.87 in 10.0 mi SW 12.7 mph - N/A   Overcast
1:15 AM 28.4 °F 18.5 °F 21.2 °F 74% 29.87 in 10.0 mi SW 11.5 mph 20.7 mph N/A   Overcast
1:35 AM 28.4 °F 18.0 °F 19.4 °F 69% 29.87 in 10.0 mi SW 12.7 mph - N/A   Overcast
1:55 AM 28.4 °F 18.5 °F 19.4 °F 69% 29.88 in 10.0 mi SW 11.5 mph 18.4 mph N/A   Overcast
2:15 AM 28.4 °F 18.0 °F 19.4 °F 69% 29.89 in 10.0 mi SW 12.7 mph 18.4 mph N/A   Overcast
2:35 AM 28.4 °F 18.5 °F 19.4 °F 69% 29.89 in 10.0 mi SW 11.5 mph - N/A   Overcast
2:55 AM 28.4 °F 19.1 °F 19.4 °F 69% 29.90 in 10.0 mi SW 10.4 mph - N/A   Overcast
3:15 AM 28.4 °F 19.7 °F 19.4 °F 69% 29.91 in 10.0 mi SW 9.2 mph - N/A   Overcast
3:35 AM 28.4 °F 19.7 °F 19.4 °F 69% 29.92 in 10.0 mi SW 9.2 mph - N/A   Overcast
3:55 AM 28.4 °F 21.2 °F 19.4 °F 69% 29.92 in 10.0 mi SW 6.9 mph - N/A   Overcast
4:15 AM 30.2 °F 22.6 °F 19.4 °F 64% 29.92 in 10.0 mi SW 8.1 mph - N/A   Overcast
4:35 AM 30.2 °F 21.9 °F 19.4 °F 64% 29.93 in 10.0 mi SW 9.2 mph - N/A   Overcast
4:55 AM 30.2 °F 22.6 °F 19.4 °F 64% 29.93 in 10.0 mi SSW 8.1 mph - N/A   Overcast
5:15 AM 30.2 °F 21.9 °F 19.4 °F 64% 29.94 in 10.0 mi SW 9.2 mph - N/A   Overcast
5:35 AM 30.2 °F 22.6 °F 19.4 °F 64% 29.95 in 10.0 mi SW 8.1 mph - N/A   Overcast
5:55 AM 30.2 °F 23.4 °F 19.4 °F 64% 29.95 in 10.0 mi SW 6.9 mph - N/A   Overcast
6:15 AM 30.2 °F 21.9 °F 19.4 °F 64% 29.96 in 10.0 mi SW 9.2 mph - N/A   Overcast
6:35 AM 30.2 °F 22.6 °F 21.2 °F 69% 29.97 in 10.0 mi SW 8.1 mph - N/A   Overcast
6:55 AM 30.2 °F 22.6 °F 21.2 °F 69% 29.99 in 10.0 mi SW 8.1 mph - N/A   Overcast
7:15 AM 30.2 °F 22.6 °F 21.2 °F 69% 29.99 in 10.0 mi SSW 8.1 mph 13.8 mph N/A   Overcast
7:35 AM 30.2 °F 21.9 °F 21.2 °F 69% 30.01 in 10.0 mi SW 9.2 mph - N/A   Overcast
7:55 AM 30.2 °F 22.6 °F 21.2 °F 69% 30.02 in 10.0 mi SW 8.1 mph - N/A   Overcast
8:15 AM 30.2 °F 22.6 °F 21.2 °F 69% 30.03 in 10.0 mi SW 8.1 mph - N/A   Overcast
8:35 AM 30.2 °F 21.9 °F 23.0 °F 75% 30.04 in 10.0 mi SW 9.2 mph - N/A   Overcast
8:55 AM 30.2 °F 21.3 °F 23.0 °F 75% 30.05 in 10.0 mi WSW 10.4 mph - N/A   Overcast
9:15 AM 30.2 °F 21.9 °F 23.0 °F 75% 30.06 in 10.0 mi SW 9.2 mph - N/A   Mostly Cloudy
9:35 AM 30.2 °F 20.8 °F 23.0 °F 75% 30.07 in 10.0 mi WSW 11.5 mph - N/A   Mostly Cloudy
9:55 AM 30.2 °F 21.3 °F 23.0 °F 75% 30.07 in 9.0 mi WSW 10.4 mph - N/A   Mostly Cloudy
10:15 AM 30.2 °F 21.3 °F 24.8 °F 80% 30.07 in 7.0 mi WSW 10.4 mph - N/A   Partly Cloudy
10:35 AM 30.2 °F 21.3 °F 24.8 °F 80% 30.07 in 9.0 mi WSW 10.4 mph - N/A   Clear
10:55 AM 30.2 °F 20.8 °F 24.8 °F 80% 30.07 in 8.0 mi West 11.5 mph - N/A   Clear
11:15 AM 32.0 °F 24.2 °F 26.6 °F 80% 30.07 in 8.0 mi West 9.2 mph - N/A   Clear
11:35 AM 32.0 °F 23.6 °F 26.6 °F 80% 30.07 in 8.0 mi West 10.4 mph - N/A   Clear
11:55 AM 32.0 °F 24.2 °F 26.6 °F 80% 30.08 in 7.0 mi West 9.2 mph - N/A   Clear
12:15 PM 32.0 °F 25.6 °F 26.6 °F 80% 30.07 in 8.0 mi West 6.9 mph - N/A   Clear
12:35 PM 32.0 °F 24.2 °F 26.6 °F 80% 30.07 in 7.0 mi West 9.2 mph - N/A   Clear
12:55 PM 32.0 °F 24.2 °F 26.6 °F 80% 30.07 in 8.0 mi West 9.2 mph - N/A   Clear
1:15 PM 32.0 °F 24.2 °F 26.6 °F 80% 30.08 in 7.0 mi West 9.2 mph - N/A   Clear
1:35 PM 32.0 °F 23.0 °F 26.6 °F 80% 30.09 in 7.0 mi West 11.5 mph - N/A   Scattered Clouds
1:55 PM 32.0 °F 24.2 °F 26.6 °F 80% 30.09 in 8.0 mi West 9.2 mph - N/A   Scattered Clouds
2:15 PM 32.0 °F 24.2 °F 26.6 °F 80% 30.09 in 5.0 mi WSW 9.2 mph - N/A   Haze
2:35 PM 32.0 °F - 28.4 °F 87% 30.09 in 3.0 mi North - - N/A   Mostly Cloudy
2:55 PM 32.0 °F 24.8 °F 28.4 °F 87% 30.09 in 2.5 mi WNW 8.1 mph - N/A Snow Light Snow
3:15 PM 32.0 °F 25.6 °F 28.4 °F 87% 30.09 in 1.0 mi West 6.9 mph - N/A Snow Light Snow
3:35 PM 30.2 °F 24.3 °F 28.4 °F 93% 30.09 in 1.5 mi West 5.8 mph - N/A Snow Light Snow
3:55 PM 30.2 °F 24.3 °F 28.4 °F 93% 30.10 in 1.5 mi West 5.8 mph - N/A Snow Light Snow
4:15 PM 30.2 °F 24.3 °F 28.4 °F 93% 30.10 in 1.2 mi WNW 5.8 mph - N/A Snow Light Snow
4:35 PM 30.2 °F 25.4 °F 28.4 °F 93% 30.11 in 1.2 mi West 4.6 mph - N/A Snow Light Snow
4:55 PM 30.2 °F 24.3 °F 28.4 °F 93% 30.10 in 1.0 mi West 5.8 mph - N/A Snow Light Snow
5:15 PM 30.2 °F 25.4 °F 28.4 °F 93% 30.10 in 1.0 mi WNW 4.6 mph - N/A Snow Light Snow
5:35 PM 30.2 °F 25.4 °F 28.4 °F 93% 30.10 in 1.0 mi WNW 4.6 mph - N/A Snow Light Snow
5:55 PM 28.4 °F 22.2 °F 28.4 °F 100% 30.11 in 1.2 mi West 5.8 mph - N/A Snow Light Snow
6:15 PM 28.4 °F 24.6 °F 28.4 °F 100% 30.12 in 2.0 mi West 3.5 mph - N/A Snow Light Snow
6:35 PM 28.4 °F 24.6 °F 28.4 °F 100% 30.12 in 3.0 mi West 3.5 mph - N/A   Overcast
6:55 PM 28.4 °F 24.6 °F 26.6 °F 93% 30.13 in 3.0 mi WSW 3.5 mph - N/A   Overcast
7:15 PM 28.4 °F - 26.6 °F 93% 30.13 in 2.5 mi Calm Calm - N/A   Overcast
7:35 PM 28.4 °F - 26.6 °F 93% 30.13 in 2.0 mi Calm Calm - N/A   Mostly Cloudy
7:55 PM 28.4 °F - 26.6 °F 93% 30.13 in 1.8 mi Calm Calm - N/A   Overcast
8:15 PM 26.6 °F - 26.6 °F 100% 30.12 in 2.0 mi Calm Calm - N/A   Scattered Clouds
8:35 PM 28.4 °F - 26.6 °F 93% 30.13 in 2.5 mi Calm Calm - N/A   Mostly Cloudy
8:55 PM 28.4 °F - 26.6 °F 93% 30.12 in 2.5 mi Calm Calm - N/A   Overcast
9:15 PM 28.4 °F - 26.6 °F 93% 30.12 in 2.5 mi Calm Calm - N/A   Overcast
9:35 PM 28.4 °F - 26.6 °F 93% 30.12 in 2.0 mi Calm Calm - N/A   Overcast
9:55 PM 28.4 °F - 26.6 °F 93% 30.12 in 3.0 mi Calm Calm - N/A   Overcast
10:15 PM 28.4 °F - 28.4 °F 100% 30.12 in 2.5 mi Calm Calm - N/A   Overcast
10:35 PM 28.4 °F - 28.4 °F 100% 30.12 in 2.0 mi Calm Calm - N/A   Overcast
10:55 PM 28.4 °F - 28.4 °F 100% 30.12 in 1.5 mi Calm Calm - N/A Snow Light Snow
11:15 PM 28.4 °F - 28.4 °F 100% 30.12 in 1.2 mi Calm Calm - N/A Snow Light Snow
11:35 PM 28.4 °F 24.6 °F 28.4 °F 100% 30.11 in 1.0 mi SSE 3.5 mph - N/A Snow Light Snow
11:55 PM 28.4 °F 24.6 °F 28.4 °F 100% 30.11 in 1.2 mi South 3.5 mph - N/A Snow Light Snow